20:02
Airports
History
Links
Donate
Help keep this website running!
PayPal
Bitcoin
This page is community maintained. The information is intended for PC simulator navigation or reference.
Always use approved charts for navigation.
EDGE
EISENACH KINDEL
EISENACH KINDEL (EDGE)
Hörselberg-Hainich, Thüringen, Germany (99820)
(U)
Lat/Lng:50° 59' 31.93" N / 10° 28' 34.65" E
50.992202 / 10.476292
Elevation:1101'ft / 336mMSL
ID / ICAO:EDGE
Runways:1
Longest:10-28
Concrete 1,706m / 5,597ft
Nearby Weather19:50 GMT 2017-12-12
Nearby weather at EDDE, Erfurt located 21.0 nautical miles from EDGE
Altimeter: 29.88
Visibility: 6.2 statute miles
Wind: 10 knots (from 230°)
Temp: 0°c / 32°f
Humidity: %

METAR: EDDE 121950Z 23010KT CAVOK 00/M02 Q1012 NOSIG

(Powered by phpweather)
Airport Radio Frequencies
Tower: 125.8, 119.75
Nearby VORs <50NM
Nearby NDBs
Runway 10 / 28
Dimensions:1705.9 x 54.9m 5597' x 180'ft
Surface:Concrete
Edge Lights:Low intensity
Runway 10 [A]Runway 28 [B]
Heading:104°TH 284°TH
Lat:
Lng:
50° 59' 39"N
10° 27' 52"E
50° 59' 24.85"N
10° 29' 17.3"E
User Notes and Comments
50° 59' 31.93" N / 10° 28' 34.65" E
Distance To
Airport ID:
Nearby Airports
(U) OBERMEHLER SCHLOTHEIM 20.2 NM
EDCO NNE 19°
(C) Erfurt 21.0 NM
EDDE ( WX ) E 92°
(C) SOEMMERDA-DERMSDORF 34.2 NM
EDBS ENE 65°
(U) Bad Hersfeld 35.0 NM
EDEN WSW 253°
(C) BAD FRANKENHAUSEN 39.1 NM
EDOF NE 47°
(C) Wasserkuppe 41.2 NM
EDER SSW 213°
(U) ALLSTEDT 49.4 NM
EDBT ENE 57°
VFR Chart
Flight Planning at SkyVector.com